DW8306 Weather Reports


time (UTC)temp
C
wind
direction
speed
KPH
gust
KPH
rain 1hr
cm
rain 24hr
cm
rain mn
cm
humidity
%
barometer
mb
20260901074538 25 319 0.0 0.0 0.00 0.00 0.00 86 1015.3
20260901073037 25 319 0.0 0.0 0.00 0.00 0.00 85 1015.3
20260901071535 25 319 0.0 0.0 0.00 0.00 0.00 84 1015.3
20260901070038 25 319 0.0 0.0 0.00 0.00 0.00 83 1015.1
20260901064537 25 319 0.0 0.0 0.00 0.00 0.00 82 1015.2
20260901063032 26 319 0.0 0.0 0.00 0.00 0.00 82 1015.4
20260901061528 26 319 0.0 0.0 0.00 0.00 0.00 81 1015.2
20260901060025 26 319 0.0 0.0 0.00 0.00 0.00 81 1015.2
20260901054525 26 319 0.0 0.0 0.00 0.00 0.00 80 1015.1
20260901053024 26 319 0.0 0.0 0.00 0.00 0.00 80 1014.9
20260901051520 26 113 0.0 0.0 0.00 0.00 0.00 80 1014.8
20260901050017 26 113 0.0 0.0 0.00 0.00 0.00 82 1014.6
20260901044516 26 113 0.0 0.0 0.00 0.00 0.00 81 1014.7
20260901043016 26 113 0.0 0.0 0.00 0.00 0.00 82 1014.7
20260901041516 26 113 0.0 0.0 0.00 0.00 0.00 81 1014.6
20260901040011 27 113 0.0 0.0 0.00 0.00 0.00 79 1014.7
20260901034512 27 113 0.0 0.0 0.00 0.00 0.00 78 1014.6
20260901033013 27 113 0.0 0.0 0.00 0.00 0.00 77 1014.5
20260901031512 28 113 0.0 0.0 0.00 0.00 0.00 76 1014.6
20260901030013 28 113 0.0 0.0 0.00 0.00 0.00 76 1014.5
20260901024507 28 113 0.0 0.0 0.00 0.00 0.00 75 1014.5
20260901023008 28 113 0.0 0.0 0.00 0.00 0.00 74 1014.2
20260901021506 28 113 0.0 0.0 0.00 0.00 0.00 73 1014.2
20260901020006 29 113 0.0 0.0 0.00 0.00 0.00 70 1014.0
20260901014504 30 113 0.0 0.0 0.00 0.00 0.00 70 1014.0
20260901013005 30 113 0.0 0.0 0.00 0.00 0.00 68 1013.9
20260901011503 30 108 0.0 0.0 0.00 0.00 0.00 66 1013.7
20260901010003 31 108 0.0 0.0 0.00 0.00 0.00 65 1013.6
20260901004502 31 108 0.0 0.0 0.00 0.00 0.00 63 1013.6
20260901003001 32 97 0.0 0.0 0.00 0.00 0.00 60 1013.7
20260901001503 33 66 0.0 0.0 0.00 0.00 0.00 57 1013.6
20260901000100 34 98 0.0 0.0 0.00 0.00 0.00 54 1013.6
20260831234604 35 115 0.0 0.0 0.00 0.00 0.00 53 1013.7
20260831233101 35 53 0.0 0.0 0.00 0.00 0.00 53 1013.7
20260831231559 35 87 0.0 0.0 0.00 0.00 0.00 51 1013.6
20260831230104 36 192 0.0 0.0 0.00 0.00 0.00 52 1013.6
20260831224557 36 104 0.0 0.0 0.00 0.00 0.00 51 1013.8
20260831223056 36 277 0.0 0.0 0.00 0.00 0.00 51 1013.9
20260831221601 36 71 0.0 0.0 0.00 0.00 0.00 53 1013.9
20260831220119 36 110 0.0 0.0 0.00 0.00 0.00 50 1013.8
20260831214553 36 116 0.0 0.0 0.00 0.00 0.00 51 1013.9
20260831213051 37 114 0.0 0.0 0.00 0.00 0.00 52 1014.0
20260831211550 36 337 0.0 0.0 0.00 0.00 0.00 50 1014.2
20260831210046 36 100 0.0 1.6 0.00 0.00 0.00 49 1014.3
20260831204555 36 20 0.0 1.6 0.00 0.00 0.00 49 1014.4
20260831203056 37 82 0.0 16.1 0.00 0.00 0.00 48 1014.6
20260831201540 37 32 3.2 11.3 0.00 0.00 0.00 49 1014.7
20260831200041 36 288 0.0 9.7 0.00 0.00 0.00 49 1014.8
20260831194541 36 128 0.0 8.0 0.00 0.00 0.00 53 1015.0
20260831193036 36 167 0.0 12.9 0.00 0.00 0.00 51 1015.1
20260831191535 37 97 0.0 3.2 0.00 0.00 0.00 51 1015.3
20260831190050 35 215 0.0 12.9 0.00 0.00 0.00 55 1015.6
20260831184533 35 77 0.0 3.2 0.00 0.00 0.00 55 1015.8
20260831183029 36 238 0.0 3.2 0.00 0.00 0.00 57 1015.8
20260831181527 35 106 1.6 6.4 0.00 0.00 0.00 56 1016.2
20260831180026 35 89 3.2 9.7 0.00 0.00 0.00 55 1016.3
20260831174523 34 91 0.0 6.4 0.00 0.00 0.00 60 1016.6
20260831173019 34 345 3.2 8.0 0.00 0.00 0.00 56 1016.7
20260831171516 34 88 0.0 6.4 0.00 0.00 0.00 61 1017.0
20260831170017 34 85 0.0 8.0 0.00 0.00 0.00 59 1017.0
20260831164508 33 292 4.8 9.7 0.00 0.00 0.00 61 1017.2
20260831163007 33 328 3.2 11.3 0.00 0.00 0.00 59 1017.2
20260831161509 32 75 1.6 9.7 0.00 0.00 0.00 61 1017.4
20260831160003 32 10 1.6 9.7 0.00 0.00 0.00 63 1017.4
20260831154503 31 354 1.6 8.0 0.00 0.00 0.00 66 1017.4
20260831153129 31 99 1.6 4.8 0.00 0.00 0.00 68 1017.3
20260831151558 31 81 1.6 6.4 0.00 0.00 0.00 69 1017.2
20260831150053 30 80 0.0 0.0 0.00 0.00 0.00 71 1017.1
20260831144550 30 93 0.0 0.0 0.00 0.00 0.00 72 1017.0
20260831143052 30 66 0.0 0.0 0.00 0.00 0.00 74 1017.0
20260831141545 28 66 0.0 3.2 0.00 0.00 0.00 77 1016.9
20260831140039 28 66 0.0 1.6 0.00 0.00 0.00 78 1016.9
20260831134535 27 66 0.0 0.0 0.00 0.00 0.00 82 1016.8
20260831133033 26 66 0.0 0.0 0.00 0.00 0.00 84 1016.7
20260831131532 25 66 0.0 3.2 0.00 0.00 0.00 87 1016.6
20260831130029 25 54 0.0 0.0 0.00 0.00 0.00 90 1016.4
20260831124525 24 54 0.0 0.0 0.00 0.00 0.00 90 1016.2
20260831123039 23 54 0.0 0.0 0.00 0.00 0.00 91 1016.1
20260831121528 23 54 0.0 0.0 0.00 0.00 0.00 91 1015.8
20260831120033 23 54 0.0 3.2 0.00 0.00 0.00 90 1015.5
20260831114521 23 54 0.0 0.0 0.00 0.00 0.00 90 1015.3
20260831113022 23 54 0.0 0.0 0.00 0.00 0.00 89 1015.3
20260831111517 23 54 0.0 0.0 0.00 0.00 0.00 89 1015.2
20260831110014 23 54 0.0 0.0 0.00 0.00 0.00 88 1015.1
20260831104527 23 56 0.0 0.0 0.00 0.00 0.00 88 1014.9
20260831103011 23 56 0.0 0.0 0.00 0.00 0.00 88 1014.9
20260831101520 23 56 0.0 0.0 0.00 0.00 0.00 87 1014.9
20260831100022 23 56 0.0 0.0 0.00 0.00 0.00 87 1014.8
20260831094508 23 56 0.0 0.0 0.00 0.00 0.00 86 1014.9
20260831093007 23 56 0.0 0.0 0.00 0.00 0.00 86 1014.8
20260831091505 23 56 0.0 0.0 0.00 0.00 0.00 85 1014.6
20260831090004 23 56 0.0 0.0 0.00 0.00 0.00 84 1014.7
20260831084503 24 56 0.0 0.0 0.00 0.00 0.00 84 1014.6
20260831083002 24 56 0.0 0.0 0.00 0.00 0.00 83 1014.7
20260831081602 24 56 0.0 0.0 0.00 0.00 0.00 82 1014.7
20260831080053 25 56 0.0 0.0 0.00 0.00 0.00 82 1014.8